Location: Akdamlar
(36.8729°N, 30.5187°E)
Time: 18:52:35
(UTC+00:00)

Cosmos 1898 Rocket - Pass Details

Date: 18 September 2020
Orbit: 753 x 784 km, 74.0° (Epoch: 26 October)

Event Time Altitude Azimuth Distance (km) Brightness Sun altitude
Rises 16:40:47 0° 204° (SSW) 3,192 6.9 -8.8°
Reaches altitude 10° 16:43:09 10° 207° (SSW) 2,269 6.2 -9.3°
Maximum altitude 16:48:15 66° 289° (WNW) 822 3.9 -10.3°
Drops below altitude 10° 16:53:24 10° 12° (NNE) 2,284 6.0 -11.3°
Sets 16:55:48 0° 15° (NNE) 3,215 6.7 -11.8°
